Content
SEND FEEDBACK

Daily
Averages
Monthly
Summary
Bolivia

ACHOCALLA, BOLIVIA


Home > South America > Bolivia
Elevation: 13248 feet     Latitude: 16 31S     Longitude: 068 10W

WEATHER
 
SELECT A DAY
Number of Records: 175,021;   Date Range: 6/30/96 - 12/18/14
 
SHARE

PRINT THIS DATA

[ ← Previous Day ]
WEATHER ALMANAC - FEBRUARY 12, 2014
[ Next Day → ]
[ °C ]   °F
Weather ElementAverageHighLow
Temperature46.5 °F60.8 °F (3:00 pm) (10:00 pm)
Dewpoint40.2 °F44.6 °F (1:00 pm)37 °F (5:00 pm)
Humidity74.5 %100 % (7:00 am)42 % (2:00 pm)
Barometer30.55 in30.63 in (11:00 pm)30.45 in (5:00 pm)
Wind Speed6.2 mph16.1 mph (10:04 pm)
Wind Gust29.9 mph (10:04 pm)
Weather ElementAverage
Visibility6 mi
Wind DirectionSSE (146.2 °)

Weather ElementTotal
Precipitation---
Heating Degree Days34.6 (Base 65)
Averaged from 35 records on February 12, 2014
WEATHER CONDITIONS BREAKOUT
WIND DIRECTION BREAKOUT
WEATHER BY HOUR - FEBRUARY 12, 2014
[ °C ]   °F
Local TimeTemperatureDewpointHumidityBarometerVisibilityWind DirectionWind SpeedGust SpeedPrecipitationEventsConditions
1:00 AM42.8 °F41.0 °F93 %30.60 in2.5 miVariable2.3 mphFogFog
2:00 AM43.0 °F39.0 °F81 %9.0 miNorth (10°)5.8 mphMostly Cloudy
2:00 AM42.8 °F39.2 °F87 %6.2 miNorth (10°)5.8 mphMostly Cloudy
3:00 AM42.8 °F37.4 °F81 %6.2 miNNW (340°)6.9 mphMostly Cloudy
4:00 AM42.8 °F37.4 °F81 %30.54 in6.2 miNNW (330°)5.8 mphMostly Cloudy
5:00 AM41.0 °F38.0 °F86 %9.0 mi°2.3 mphScattered Clouds
5:00 AM41.0 °F39.2 °F93 %6.2 miVariable2.3 mphMostly Cloudy
6:00 AM41.0 °F39.2 °F93 %30.54 in6.2 miVariable2.3 mphMostly Cloudy
6:13 AM41.0 °F39.2 °F93 %30.57 in2.5 miVariable2.3 mphFogFog
6:26 AM41.0 °F39.2 °F93 %30.57 in0.5 miVariable2.3 mphFogFog
7:00 AM41.0 °F41.0 °F100 %30.57 in2.5 miVariable2.3 mphFogFog
8:00 AM44.0 °F41.0 °F84 %9.0 miENE (60°)3.5 mphScattered Clouds
8:00 AM42.8 °F41.0 °F93 %30.60 in6.2 miENE (60°)3.5 mphMostly Cloudy
9:00 AM48.2 °F41.0 °F76 %30.60 in6.2 miCalmMostly Cloudy
10:00 AM50.0 °F41.0 °F71 %30.60 in6.2 miESE (120°)4.6 mphMostly Cloudy
11:00 AM54.0 °F41.0 °F50 %12.0 miESE (110°)6.9 mphPartly Cloudy
11:00 AM53.6 °F41.0 °F62 %30.60 in6.2 miESE (110°)6.9 mphMostly Cloudy
12:00 PM57.2 °F42.8 °F59 %30.57 in6.2 miESE (110°)6.9 mphMostly Cloudy
1:00 PM59.0 °F44.6 °F59 %30.57 in6.2 miESE (120°)11.5 mphMostly Cloudy
2:00 PM60.0 °F43.0 °F42 %6.0 miESE (120°)10.4 mphPartly Cloudy
2:00 PM59.0 °F42.8 °F55 %30.51 in6.2 miESE (120°)10.4 mphScattered Clouds
3:00 PM60.8 °F39.2 °F45 %30.48 in6.2 miESE (120°)11.5 mphMostly Cloudy
4:00 PM55.4 °F41.0 °F58 %30.48 in6.2 miSouth (180°)11.5 mphMostly Cloudy
5:00 PM53.0 °F37.0 °F43 %9.0 miNW (310°)5.8 mphThunderstormThunderstorm
5:00 PM53.6 °F37.4 °F54 %30.45 in6.2 miNW (310°)5.8 mphThunderstormMostly Cloudy
6:00 PM53.6 °F39.2 °F58 %30.45 in6.2 miEast (80°)5.8 mphMostly Cloudy
7:00 PM51.8 °F41.0 °F67 %30.48 in6.2 miESE (120°)4.6 mphMostly Cloudy
8:00 PM50.0 °F41.0 °F63 %9.0 miWNW (300°)6.9 mphScattered Clouds
8:00 PM50.0 °F41.0 °F71 %30.51 in6.2 miWNW (300°)6.9 mphMostly Cloudy
9:00 PM50.0 °F41.0 °F71 %30.54 in6.2 miNNW (330°)6.9 mphRain-ThunderstormLight Rain Showers
10:00 PM0.0 °F42.8 °F30.57 in6.2 miWest (260°)15.0 mphThunderstormMostly Cloudy
10:04 PM41.0 °F37.4 °F87 %30.60 in1.9 miSW (220°)16.1 mph29.9 mphRain-ThunderstormThunderstorms and Rain
10:30 PM39.2 °F39.2 °F100 %30.60 in3.7 miWest (260°)5.8 mphRain-ThunderstormLight Thunderstorms and Rain
11:00 PM41.0 °F40.0 °F92 %4.0 miWest (280°)4.6 mphRain-ThunderstormThunderstorms and Rain
11:00 PM41.0 °F39.2 °F93 %30.63 in3.7 miWest (280°)4.6 mphRain-ThunderstormLight Thunderstorms and Rain
Hourly data recorded from SLLP, located miles away from Achocalla, Bolivia







STORIES FROM OUR PARTNERS